This demonstration page uses our WeatherBlox Daily Observations layout. Learn more.

Left ArrowRight Arrow

40.97296, -117.73568

Hourly Observations for August 14, 2022

Temp ( °F °C ) Dew Point ( °F °C ) Humidity (%) Winds ( mph kmh ) Pressure ( in mb ) Visibility ( mi km ) Precip ( " mm )
12:56 am 00:56 Clear 55 12.8 28 -2.2 35 35 S 6 9 29.95 1014 10 16 0.00 0.00
1:56 am 01:56 Clear 51 10.6 27 -2.8 39 39 S 6 9 29.97 1015 10 16 0.00 0.00
2:56 am 02:56 Clear 53 11.7 29 -1.7 39 39 S 6 9 29.96 1015 10 16 0.00 0.00
3:56 am 03:56 Clear 57 13.9 27 -2.8 31 31 NNE 3 6 29.96 1015 10 16 0.00 0.00
4:56 am 04:56 Clear 50 10 29 -1.7 44 44 SE 5 7 29.97 1015 10 16 0.00 0.00
5:56 am 05:56 Clear 49 9.4 30 -1.1 48 48 Calm 29.99 1016 10 16 0.00 0.00
6:56 am 06:56 Sunny 52 11.1 32 0 46 46 Calm 30.00 1016 10 16 0.00 0.00
7:56 am 07:56 Sunny 64 17.8 29 -1.7 26 26 Calm 30.01 1016 10 16 0.00 0.00
8:56 am 08:56 Sunny 76 24.4 31 -0.6 19 19 WNW 6 9 29.99 1016 10 16 0.00 0.00
9:56 am 09:56 Sunny 81 27.2 30 -1.1 16 16 NW 7 11 30.00 1016 10 16 0.00 0.00
10:56 am 10:56 Sunny 85 29.4 31 -0.6 14 14 N 6 9 29.98 1015 10 16 0.00 0.00
11:56 am 11:56 Sunny 88 31.1 27 -2.8 11 11 N 5 7 29.97 1015 10 16 0.00 0.00
12:56 pm 12:56 Sunny 92 33.3 27 -2.8 10 10 WNW 10 17 29.96 1014 10 16 0.00 0.00
1:56 pm 13:56 Sunny 93 33.9 21 -6.1 7 7 W 8 13 29.94 1014 10 16 0.00 0.00
2:56 pm 14:56 Sunny 96 35.6 23 -5 7 7 VRB 3 6 29.91 1013 10 16 0.00 0.00
3:56 pm 15:56 Sunny 96 35.6 24 -4.4 8 8 W 10 17 29.88 1012 10 16 0.00 0.00
4:56 pm 16:56 Sunny 96 35.6 23 -5 7 7 W 10 17 29.87 1012 10 16 0.00 0.00
5:56 pm 17:56 Sunny 96 35.6 22 -5.6 7 7 W 6 9 29.87 1011 10 16 0.00 0.00
6:56 pm 18:56 Sunny 93 33.9 22 -5.6 8 8 N 9 15 29.86 1011 10 16 0.00 0.00
7:56 pm 19:56 Clear 82 27.8 25 -3.9 12 12 NW 7 11 29.87 1012 10 16 0.00 0.00
8:56 pm 20:56 Clear 71 21.7 25 -3.9 18 18 Calm 29.89 1012 10 16 0.00 0.00
9:56 pm 21:56 Clear 70 21.1 23 -5 17 17 WNW 8 13 29.90 1013 10 16 0.00 0.00
10:56 pm 22:56 Clear 64 17.8 25 -3.9 22 22 E 3 6 29.90 1013 10 16 0.00 0.00
11:56 pm 23:56 undefined 60 15.6 25 -3.9 26 26 VRB 5 7 29.91 1013 10 16 0.00 0.00

Powered by AerisWeather